Previsão horária em Allinges

Hoje, 27 Janeiro, Quarta-feira

Tempo Temperatura Precipitação Vento Pressão Humidade
00:00 -3°C° 0 mm 1 m/s 713 mmHg 79%
01:00 -3°C° 0 mm 1 m/s 712 mmHg 78%
02:00 -3°C° 0 mm 1 m/s 712 mmHg 77%
03:00 -3°C° 0 mm 1 m/s 711 mmHg 76%
04:00 -2°C° 0 mm 1 m/s 711 mmHg 77%
05:00 -1°C° 0 mm 1 m/s 711 mmHg 77%
06:00 0°C° 0 mm 1 m/s 711 mmHg 77%
07:00 -2°C° 0.2 mm 2 m/s 711 mmHg 82%
08:00 -1°C° 0.2 mm 2 m/s 710 mmHg 86%
09:00 0°C° 0.2 mm 3 m/s 710 mmHg 91%
10:00 0°C° 0.4 mm 3 m/s 710 mmHg 93%
11:00 +1°C° 0.4 mm 3 m/s 710 mmHg 94%
12:00 +2°C° 0.4 mm 3 m/s 710 mmHg 96%
13:00 +3°C° 1.7 mm 2 m/s 710 mmHg 97%
14:00 +3°C° 1.7 mm 2 m/s 710 mmHg 98%
15:00 +3°C° 1.7 mm 2 m/s 710 mmHg 98%
16:00 +3°C° 1.3 mm 2 m/s 710 mmHg 99%
17:00 +3°C° 1.3 mm 2 m/s 711 mmHg 99%
18:00 +4°C° 1.3 mm 1 m/s 711 mmHg 99%
19:00 +4°C° 0.6 mm 2 m/s 711 mmHg 99%
20:00 +4°C° 0.6 mm 2 m/s 711 mmHg 99%
21:00 +4°C° 0.6 mm 2 m/s 712 mmHg 99%
22:00 +4°C° 0.8 mm 2 m/s 712 mmHg 99%
23:00 +4°C° 0.8 mm 2 m/s 712 mmHg 99%

Amanhã, 28 Janeiro, Quinta-feira

Tempo Temperatura Precipitação Vento Pressão Humidade
00:00 +4°C° 0.8 mm 2 m/s 712 mmHg 99%
01:00 +4°C° 1.1 mm 2 m/s 711 mmHg 99%
02:00 +4°C° 1.1 mm 2 m/s 711 mmHg 99%
03:00 +4°C° 1.1 mm 2 m/s 710 mmHg 99%
04:00 +4°C° 1.5 mm 3 m/s 710 mmHg 99%
05:00 +4°C° 1.5 mm 3 m/s 710 mmHg 99%
06:00 +4°C° 1.5 mm 3 m/s 710 mmHg 99%
07:00 +4°C° 1.8 mm 3 m/s 710 mmHg 99%
08:00 +4°C° 1.8 mm 4 m/s 710 mmHg 99%
09:00 +4°C° 1.8 mm 4 m/s 709 mmHg 99%
10:00 +5°C° 1.1 mm 4 m/s 709 mmHg 99%
11:00 +5°C° 1.1 mm 4 m/s 709 mmHg 99%
12:00 +5°C° 1.1 mm 5 m/s 709 mmHg 99%
13:00 +5°C° 1.4 mm 4 m/s 709 mmHg 98%
14:00 +5°C° 1.4 mm 4 m/s 708 mmHg 98%
15:00 +5°C° 1.4 mm 4 m/s 708 mmHg 98%
16:00 +5°C° 0.7 mm 3 m/s 709 mmHg 98%
17:00 +5°C° 0.7 mm 3 m/s 709 mmHg 98%
18:00 +5°C° 0.7 mm 3 m/s 709 mmHg 98%
19:00 +5°C° 0.5 mm 3 m/s 709 mmHg 98%
20:00 +5°C° 0.5 mm 3 m/s 709 mmHg 98%
21:00 +5°C° 0.5 mm 3 m/s 709 mmHg 98%
22:00 +5°C° 0.4 mm 3 m/s 709 mmHg 98%
23:00 +5°C° 0.4 mm 3 m/s 708 mmHg 98%

Depois de amanhã, 29 Janeiro, Sexta-feira

Tempo Temperatura Precipitação Vento Pressão Humidade
00:00 +5°C° 0.4 mm 3 m/s 708 mmHg 98%
01:00 +5°C° 2.4 mm 3 m/s 707 mmHg 98%
02:00 +5°C° 2.4 mm 4 m/s 706 mmHg 98%
03:00 +5°C° 2.4 mm 4 m/s 705 mmHg 98%
04:00 +5°C° 3.1 mm 4 m/s 704 mmHg 98%
05:00 +5°C° 3.1 mm 4 m/s 704 mmHg 98%
06:00 +5°C° 3.1 mm 4 m/s 703 mmHg 98%
07:00 +5°C° 4.1 mm 5 m/s 703 mmHg 98%
08:00 +6°C° 4.1 mm 5 m/s 704 mmHg 98%
09:00 +6°C° 4.1 mm 5 m/s 704 mmHg 98%
10:00 +6°C° 2 mm 5 m/s 704 mmHg 97%
11:00 +6°C° 2 mm 4 m/s 705 mmHg 96%
12:00 +7°C° 2 mm 3 m/s 705 mmHg 95%
13:00 +5°C° 0.4 mm 3 m/s 706 mmHg 95%
14:00 +5°C° 0.4 mm 3 m/s 706 mmHg 95%
15:00 +5°C° 0.4 mm 3 m/s 706 mmHg 94%
16:00 +5°C° 0.4 mm 3 m/s 706 mmHg 94%
17:00 +4°C° 0.4 mm 3 m/s 706 mmHg 94%
18:00 +4°C° 0.4 mm 3 m/s 706 mmHg 94%
19:00 +4°C° 0.8 mm 3 m/s 706 mmHg 95%
20:00 +4°C° 0.8 mm 4 m/s 706 mmHg 96%
21:00 +4°C° 0.8 mm 4 m/s 706 mmHg 97%
22:00 +4°C° 1 mm 4 m/s 706 mmHg 97%
23:00 +4°C° 1 mm 4 m/s 705 mmHg 97%

30 Janeiro, Sábado

Tempo Temperatura Precipitação Vento Pressão Humidade
00:00 +4°C° 1 mm 3 m/s 705 mmHg 97%
01:00 +4°C° 0.4 mm 3 m/s 705 mmHg 97%
02:00 +3°C° 0.4 mm 3 m/s 704 mmHg 97%
03:00 +3°C° 0.4 mm 3 m/s 704 mmHg 96%
04:00 +3°C° 0 mm 3 m/s 703 mmHg 94%
05:00 +3°C° 0 mm 3 m/s 702 mmHg 91%
06:00 +4°C° 0 mm 2 m/s 701 mmHg 89%
07:00 +5°C° 0.3 mm 2 m/s 700 mmHg 91%
08:00 +4°C° 0.3 mm 3 m/s 700 mmHg 93%
09:00 +4°C° 0.3 mm 3 m/s 699 mmHg 95%
10:00 +4°C° 1.9 mm 3 m/s 699 mmHg 96%
11:00 +4°C° 1.9 mm 3 m/s 698 mmHg 97%
12:00 +4°C° 1.9 mm 3 m/s 698 mmHg 98%
13:00 +4°C° 2 mm 3 m/s 697 mmHg 98%
14:00 +4°C° 2 mm 3 m/s 697 mmHg 98%
15:00 +4°C° 2 mm 3 m/s 697 mmHg 98%
16:00 +5°C° 0.6 mm 2 m/s 697 mmHg 97%
17:00 +5°C° 0.6 mm 2 m/s 698 mmHg 97%
18:00 +4°C° 0.6 mm 2 m/s 698 mmHg 97%
19:00 +5°C° 0.5 mm 1 m/s 698 mmHg 96%
20:00 +5°C° 0.5 mm 1 m/s 698 mmHg 96%
21:00 +4°C° 0.5 mm 1 m/s 698 mmHg 96%
22:00 +4°C° 0.8 mm 1 m/s 698 mmHg 97%
23:00 +4°C° 0.8 mm 1 m/s 699 mmHg 97%

31 Janeiro, Domingo

Tempo Temperatura Precipitação Vento Pressão Humidade
00:00 +5°C° 0.8 mm 1 m/s 699 mmHg 98%
01:00 +5°C° 0.3 mm 1 m/s 699 mmHg 98%
02:00 +4°C° 0.3 mm 0 m/s 699 mmHg 98%
03:00 +3°C° 0.3 mm 0 m/s 699 mmHg 98%
04:00 +3°C° 0 mm 0 m/s 699 mmHg 97%
05:00 +3°C° 0 mm 0 m/s 699 mmHg 96%
06:00 +3°C° 0 mm 0 m/s 700 mmHg 96%
07:00 +4°C° 0 mm 0 m/s 700 mmHg 95%
08:00 +4°C° 0 mm 0 m/s 701 mmHg 95%
09:00 +4°C° 0 mm 0 m/s 701 mmHg 94%
10:00 +5°C° 0 mm 0 m/s 701 mmHg 93%
11:00 +5°C° 0 mm 0 m/s 701 mmHg 92%
12:00 +6°C° 0 mm 0 m/s 701 mmHg 91%
13:00 +6°C° 0.1 mm 0 m/s 701 mmHg 92%
14:00 +7°C° 0.1 mm 1 m/s 701 mmHg 93%
15:00 +7°C° 0.1 mm 1 m/s 701 mmHg 94%
16:00 +6°C° 0 mm 1 m/s 701 mmHg 94%
17:00 +5°C° 0 mm 1 m/s 701 mmHg 94%
18:00 +3°C° 0 mm 2 m/s 701 mmHg 94%
19:00 +3°C° 0 mm 2 m/s 700 mmHg 93%
20:00 +3°C° 0 mm 2 m/s 700 mmHg 92%
21:00 +3°C° 0 mm 2 m/s 700 mmHg 91%
22:00 +3°C° 0.5 mm 2 m/s 699 mmHg 92%
23:00 +3°C° 0.5 mm 2 m/s 699 mmHg 94%

1 Fevereiro, Segunda-feira

Tempo Temperatura Precipitação Vento Pressão Humidade
00:00 +3°C° 0.5 mm 2 m/s 699 mmHg 96%
01:00 +2°C° 1.1 mm 3 m/s 699 mmHg 96%
02:00 +2°C° 1.1 mm 3 m/s 699 mmHg 97%
03:00 +3°C° 1.1 mm 3 m/s 699 mmHg 97%
04:00 +3°C° 1.4 mm 3 m/s 700 mmHg 97%
05:00 +3°C° 1.4 mm 3 m/s 700 mmHg 97%
06:00 +3°C° 1.4 mm 3 m/s 701 mmHg 97%
07:00 +3°C° 1.9 mm 3 m/s 702 mmHg 97%
08:00 +4°C° 1.9 mm 3 m/s 702 mmHg 97%
09:00 +4°C° 1.9 mm 3 m/s 703 mmHg 98%
10:00 +4°C° 1.3 mm 3 m/s 703 mmHg 98%
11:00 +4°C° 1.3 mm 3 m/s 704 mmHg 98%
12:00 +4°C° 1.3 mm 3 m/s 704 mmHg 98%
13:00 +4°C° 0.9 mm 3 m/s 704 mmHg 97%
14:00 +4°C° 0.9 mm 3 m/s 705 mmHg 97%
15:00 +4°C° 0.9 mm 3 m/s 705 mmHg 97%
16:00 +4°C° 0.2 mm 3 m/s 705 mmHg 97%
17:00 +4°C° 0.2 mm 3 m/s 706 mmHg 97%
18:00 +4°C° 0.2 mm 3 m/s 706 mmHg 97%
19:00 +4°C° 0.7 mm 3 m/s 706 mmHg 97%
20:00 +4°C° 0.7 mm 3 m/s 706 mmHg 97%
21:00 +4°C° 0.7 mm 3 m/s 706 mmHg 96%
22:00 +4°C° 1.4 mm 3 m/s 706 mmHg 97%
23:00 +5°C° 1.4 mm 3 m/s 706 mmHg 97%
Mostrar mais

Necessitamos do seu Consentimento

A Meteoprog e os seus Fornecedores de Serviços podem armazenar e aceder a dados pessoais como cookies, identificadores do dispositivo ou outras tecnologias semelhantes existentes no seu dispositivo e processar estes dados para personalizar conteúdos e anúncios, assim como funcionalidades nas redes sociais e análise de tráfego.

  • Armazenar e/ou aceder a informações no seu dispositivo

    Os cookies, identificadores do dispositivo ou outras informações podem ser armazenados ou acedidos no seu dispositivo, para os fins acima indicados.

  • Anúncios e conteúdos personalizados, medição de anúncios e conteúdos, dados sobre o público-alvo e desenvolvimento de produtos

    Os anúncios e os conteúdos podem ser personalizados com base num perfil. Podem ser adicionados dados adicionais para uma maior personalização dos anúncios e dos conteúdos. A eficácia dos anúncios e dos conteúdos pode ser medida. Podem ser obtidas informações sobre o público que visualizou os anúncios e os conteúdos. Estes dados podem ser usados para desenvolver ou melhorar sistemas, softwares ou a experiência do utilizador.

Ao clicar em "Eu concordo”, permitirá o uso de cookies, identificadores do dispositivo e web beacons mencionados ou outras tecnologias semelhantes. As configurações do navegador do seu dispositivo podem ser alteradas.

Para certos fins, podem ser invocados interesses legítimos ao invés de consentimento. Pode ler mais informação sobre este assunto na nossa Política de Privacidade e Cookies.